CW5437 Weather Reports


time (UTC)temp
F
wind
direction
speed
knots
gust
knots
rain 1hr
in
rain 24hr
in
rain mn
in
humidity
%
barometer
mb
20260504001006 55 228 7.8 10.4 0.00 0.00 0.00 41 1012.4
20260504000007 56 250 7.0 9.6 0.00 0.00 0.00 40 1012.4
20260503235002 56 273 6.1 9.6 0.00 0.00 0.00 40 1012.4
20260503233007 56 250 7.0 9.6 0.00 0.00 0.00 39 1012.5
20260503232002 56 273 7.0 10.4 0.00 0.00 0.00 39 1012.4
20260503231002 56 250 11.3 14.8 0.00 0.00 0.00 38 1012.3
20260503230003 56 228 2.6 5.2 0.00 0.00 0.00 38 1012.4
20260503225030 56 250 5.2 7.0 0.00 0.00 0.00 36 1012.5
20260503224005 56 250 7.8 10.4 0.00 0.00 0.00 35 1012.4
20260503223006 56 250 2.6 5.2 0.00 0.00 0.00 37 1012.4
20260503222007 56 295 8.7 14.8 0.00 0.00 0.00 35 1012.5
20260503221007 56 318 7.0 13.0 0.00 0.00 0.00 35 1012.4
20260503220007 57 295 5.2 8.7 0.00 0.00 0.00 34 1012.5
20260503215002 57 295 4.3 7.8 0.00 0.00 0.00 34 1012.4
20260503214003 57 295 10.4 20.0 0.00 0.00 0.00 32 1012.3
20260503213003 58 250 9.6 16.5 0.00 0.00 0.00 32 1012.2
20260503212004 58 250 5.2 12.2 0.00 0.00 0.00 32 1012.1
20260503210004 58 273 8.7 16.5 0.00 0.00 0.00 31 1012.2
20260503205005 59 273 12.2 15.6 0.00 0.00 0.00 30 1012.2
20260503204005 58 273 11.3 15.6 0.00 0.00 0.00 31 1012.2
20260503203006 58 273 9.6 16.5 0.00 0.00 0.00 30 1012.5
20260503195004 57 250 16.5 21.7 0.00 0.00 0.00 35 1012.7
20260503193004 57 250 11.3 20.9 0.00 0.00 0.00 34 1013.1
20260503192004 57 250 11.3 15.6 0.00 0.00 0.00 36 1013.2
20260503191006 56 228 11.3 14.8 0.00 0.00 0.00 38 1013.4
20260503190006 56 273 14.8 20.0 0.00 0.00 0.00 35 1013.4
20260503185006 57 250 7.0 9.6 0.00 0.00 0.00 36 1013.5
20260503184007 58 250 13.0 19.1 0.00 0.00 0.00 37 1013.8
20260503183001 57 273 13.0 20.9 0.00 0.00 0.00 35 1013.8
20260503182002 57 250 12.2 16.5 0.00 0.00 0.00 35 1014.0
20260503181003 56 250 13.9 20.0 0.00 0.00 0.00 37 1014.0
20260503180004 56 250 15.6 21.7 0.00 0.00 0.00 34 1014.1
20260503173002 56 250 13.9 20.9 0.00 0.00 0.00 38 1014.2
20260503172003 55 273 13.0 19.1 0.00 0.00 0.00 37 1014.4
20260503171004 54 250 15.6 20.9 0.00 0.00 0.00 37 1014.4
20260503131006 44 273 7.8 11.3 0.00 0.00 0.00 65 1016.1
20260503081007 31 250 2.6 3.5 0.00 0.00 0.00 90 1015.8
20260503072002 32 228 4.3 5.2 0.00 0.00 0.00 87 1015.8
20260503071003 32 228 4.3 5.2 0.00 0.00 0.00 86 1015.7
20260503054002 35 228 3.5 4.3 0.00 0.00 0.00 81 1016.0
20260503053002 35 228 3.5 5.2 0.00 0.00 0.00 81 1016.0
20260503052003 35 228 3.5 4.3 0.00 0.00 0.00 81 1016.1
20260503051003 35 228 4.3 6.1 0.00 0.00 0.00 80 1016.1
20260503050004 35 228 5.2 6.1 0.00 0.00 0.00 79 1016.2
20260503045005 36 228 4.3 6.1 0.00 0.00 0.00 78 1016.2
20260503042003 37 250 5.2 6.1 0.00 0.00 0.00 74 1016.2
20260503041004 37 250 3.5 4.3 0.00 0.00 0.00 73 1016.3
20260503040004 37 228 3.5 4.3 0.00 0.00 0.00 73 1016.3
20260503035004 37 273 3.5 4.3 0.00 0.00 0.00 72 1016.4
20260503034004 37 228 2.6 3.5 0.00 0.00 0.00 71 1016.4
20260503033005 38 228 1.7 2.6 0.00 0.00 0.00 70 1016.4
20260503032006 38 205 1.7 2.6 0.00 0.00 0.00 70 1016.5
20260503031001 38 228 2.6 3.5 0.00 0.00 0.00 70 1016.5
20260503030002 38 205 2.6 3.5 0.00 0.00 0.00 70 1016.5
20260503025002 38 228 2.6 3.5 0.00 0.00 0.00 69 1016.6
20260503024003 39 250 4.3 5.2 0.00 0.00 0.00 68 1016.7
20260503023004 39 250 5.2 6.1 0.00 0.00 0.00 66 1016.7
20260503022005 39 250 5.2 6.1 0.00 0.00 0.00 66 1016.7
20260503020005 39 295 3.5 7.0 0.00 0.00 0.00 66 1016.8
20260503014005 39 273 3.5 7.0 0.00 0.00 0.00 66 1016.7
20260503013006 39 318 1.7 4.3 0.00 0.00 0.00 66 1016.7
20260503012007 39 273 3.5 5.2 0.00 0.00 0.00 67 1016.7
20260503011006 39 295 5.2 8.7 0.00 0.00 0.00 65 1016.6
20260503010002 39 273 4.3 9.6 0.00 0.00 0.00 64 1016.6
20260503004002 39 318 3.5 6.1 0.00 0.00 0.00 66 1016.5
20260503003002 39 295 2.6 3.5 0.00 0.00 0.00 66 1016.4
20260503002003 39 273 5.2 10.4 0.00 0.00 0.00 64 1016.4